Regional Weather Roundup
Issued by NWS

Home | Current Version | Previous Version | Text Only | Print | Product List | Glossary Off
Versions: 1 2 3 4 5 6 7 8 9 10 11 12 13 14 15 16 17 18 19 20 21 22 23 24 25 26 27 28 29 30 31 32 33 34 35 36 37 38 39 40 41 42 43 44 45 46 47 48 49 50

000
ASUS43 KDTX 220910
RWRMI
MICHIGAN HOURLY REGIONAL WEATHER ROUNDUP
NATIONAL WEATHER SERVICE DETROIT/PONTIAC MI
400 AM EST MON JAN 22 2018

NOTE: "FAIR" INDICATES FEW OR NO CLOUDS BELOW 12,000 FEET WITH NO
SIGNIFICANT WEATHER AND/OR OBSTRUCTION TO VISIBILITY.

MIZ047>049-052>055-059>063-066>070-074>076-081>083-221000-
SOUTHEAST LOWER MICHIGAN

CITY           SKY/WX    TMP DP  RH WIND       PRES   REMARKS
ADRIAN         LGT RAIN  38  37  97 E3        29.91F VSB 3/4
ALMA           FOG       36  36 100 NE8       29.91F VSB 1   WCI  30
ANN ARBOR      LGT RAIN  38  38 100 NE3       29.92S VSB 1/2
BAD AXE        MIX PCPN  34  34  99 E6        29.98F WCI  29
CARO           CLOUDY    37  36  96 E7        29.95F FOG     WCI  31
DETROIT CITY   CLOUDY    36  36 100 E3        29.95S FOG
DETROIT        LGT RAIN  39  39 100 E5        29.93F VSB 1/4
FLINT          CLOUDY    37  37 100 E7        29.92F FOG     WCI  32
GROSSE ILE     FOG       39  38  99 E3        29.92F VSB 1/2
HILLSDALE      RAIN      43  41  93 SE6       29.87F
HOWELL         FOG       38  38 100 E7        29.90F VSB 1   WCI  33

CITY           SKY/WX    TMP DP  RH WIND       PRES   REMARKS
JACKSON        LGT RAIN  39  39 100 E6        29.88F VSB 1/2 WCI  35
LAMBERTVILLE   MIX PCPN  45  44  97 CALM      29.92S VSB 1
LANSING        FOG       37  37 100 E6        29.90S VSB 1/2 WCI  32
LAPEER         CLOUDY    36  36 100 E5        29.94F FOG     WCI  32
MASON          FOG       41  37  87 SE5       29.89S VSB 3/4
MONROE         RAIN      38  37  93 CALM      29.92S VSB 3/4
MT. CLEMENS    CLOUDY   N/A N/A N/A NE9         N/A
PONTIAC        CLOUDY    37  37 100 SE3       29.92R FOG
PORT HOPE        N/A     33  32  96 E9        29.99S WCI  25
PORT HURON     CLOUDY    36  34  93 E5        29.97F FOG     WCI  32
TRI CITIES     LGT RAIN  37  37 100 NE13      29.94F FOG     WCI  29
MIDLAND        LGT RAIN  36  35  99 NE9       29.95S WCI  29
TROY           CLOUDY    37  36  98 NE6       29.95F FOG     WCI  32
SAGINAW HB     LGT RAIN  34  34 100 NE9       29.94F WCI  26
$$
MIZ043>046-050>051-056>058-064>065-071>073-077>080-221000-
SOUTHWEST LOWER MICHIGAN

CITY           SKY/WX    TMP DP  RH WIND       PRES   REMARKS
BATTLE CREEK   LGT RAIN  42  42 100 SE5       29.85F FOG
BENTON HARBOR  LGT RAIN  46  44  93 E6        29.79F FOG
BIG RAPIDS     MIX PCPN  37  36  95 E7        29.89F WCI  31
COLDWATER      LGT RAIN  46  46 100 SE5       29.85F
FREMONT        CLOUDY    37  36  93 E8        29.86F FOG     WCI  31
HOLLAND        CLOUDY    39  38  96 E7        29.84F FOG     WCI  34
GRAND RAPIDS   FOG       37  36  96 E9        29.86F VSB 1   WCI  30
IONIA          FOG       36  36 100 E8        29.87F VSB 1   WCI  29
KALAMAZOO      LGT RAIN  44  42  93 CALM      29.84F VSB 1/2
LUDINGTON      CLOUDY    37  37 100 E9        29.87F FOG     WCI  31
MARSHALL       LGT RAIN  42  41  97 E5        29.86F VSB 3/4
MOUNT PLEASANT LGT RAIN  36  35  96 NE7       29.93S WCI  30
MUSKEGON       CLOUDY    39  36  89 E9        29.85F FOG     WCI  33
SOUTH HAVEN    FOG       45  44  97 E6        29.81F VSB 1/2
$$
MIZ016>042-221000-
NORTHERN LOWER MICHIGAN

CITY           SKY/WX    TMP DP  RH WIND       PRES   REMARKS
ALPENA         FOG       34  34 100 E3        30.03F VSB 1/2
BEAVER ISLAND  SNOW      33  33  99 E13G18    30.00F VSB 1/2 WCI  24
BELLAIRE       CLOUDY    33  32  96 CALM      29.97F
CADILLAC       CLOUDY    35  35  99 E10       29.89F FOG     WCI  27
CHARLEVOIX     CLOUDY    33  33 100 E9        30.01S FOG     WCI  26
FRANKFORT      CLOUDY    38  34  84 NE6       29.92F WCI  34
GAYLORD        CLOUDY    32  31  96 NE7       29.95F WCI  26
GRAYLING       CLOUDY    33  30  89 E8        29.96F WCI  26
HARBOR SPRINGS CLOUDY    33  32  99 E15       29.99F FOG     WCI  22
HOUGHTON LAKE  CLOUDY    35  34  96 E7        29.94F FOG     WCI  29
MANISTEE       LGT RAIN  37  36  96 E8        29.89F FOG     WCI  31
OSCODA         SNOW      32  32 100 NE7       30.01F VSB 1/2 WCI  26
PELLSTON       CLOUDY    34  33  96 E13       30.02F FOG     WCI  25
ROGERS CITY    FOG       34  33  97 E7        30.05S VSB 1/4 WCI  28
TRAVERSE CITY  CLOUDY    37  33  85 NE7       29.94S WCI  32
$$
MIZ007>008-015-221000-
EASTERN UPPER MICHIGAN

CITY           SKY/WX    TMP DP  RH WIND       PRES   REMARKS
KINROSS        CLOUDY    34  31  88 E10       30.05F WCI  26
MACKINAC ISLAN FOG       32  32 100 E12G20    30.03S VSB 1/2 WCI  23
NEWBERRY       CLOUDY    31  31  98 NE9       30.03F WCI  23
S. S. MARIE    CLOUDY    32  23  69 NE12      30.07R WCI  23
MUNISING         N/A     33  33 100 NE10      30.03F WCI  25
$$
MIZ004>006-011>014-085-221000-
CENTRAL UPPER MICHIGAN

CITY           SKY/WX    TMP DP  RH WIND       PRES   REMARKS
MANISTIQUE     CLOUDY    32  30  93 NE8       30.00F WCI  25
ESCANABA       CLOUDY    33  31  92 N10G18    29.99F FOG     WCI  25
MENOMINEE      CLOUDY    34  32  92 NE14      29.97F WCI  25
SAWYER-GWINN   FOG       29  28  96 NE10      30.01S VSB 1   WCI  20
$$
MIZ001>003-009>011-084-221000-
WESTERN UPPER MICHIGAN

CITY           SKY/WX    TMP DP  RH WIND       PRES   REMARKS
IRON MOUNTAIN  CLOUDY    31  28  89 NE7       29.97S WCI  24
HOUGHTON       CLOUDY    27  23  85 E10       30.08R WCI  17
COPPER HARBOR    N/A     28  23  81 E13       30.11R WCI  17
IRONWOOD       CLOUDY    28  27  96 NE6       30.01S WCI  22
$$

ABBREVIATIONS USED IN REMARKS
   TC - TEMPERATURE IN CELSIUS
  WCI - WIND CHILL INDEX
   HX - HEAT INDEX
  VSB - VISIBILITY




USA.gov is the U.S. government's official web portal to all federal, state and local government web resources and services.